CST,Max TemperatureF,Mean TemperatureF,Min TemperatureF,Max Dew PointF,MeanDew PointF,Min DewpointF,Max Humidity, Mean Humidity, Min Humidity, Max Sea Level PressureIn, Mean Sea Level PressureIn, Min Sea Level PressureIn, Max VisibilityMiles, Mean VisibilityMiles, Min VisibilityMiles, Max Wind SpeedMPH, Mean Wind SpeedMPH, Max Gust SpeedMPH,PrecipitationIn, CloudCover, Events, WindDirDegrees
2012-10-1,77,70,63,66,63,58,100,78,49,30.09,29.96,29.59,9,4,0,6,1,,0.01,6,Fog,222
2012-10-2,76,69,62,67,61,54,94,70,47,30.15,30.01,29.74,11,10,7,7,2,,0.00,6,,228
2012-10-3,80,68,57,57,53,42,94,53,23,30.24,30.10,29.80,12,10,7,7,1,,0.00,6,,246
2012-10-4,84,69,54,54,47,36,82,42,15,30.27,30.13,29.81,20,14,11,10,2,,0.00,3,,188
2012-10-5,78,66,55,54,48,34,82,45,22,30.23,30.12,29.74,20,16,7,8,3,,0.00,2,,252
2012-10-6,80,68,57,55,51,41,72,48,34,30.16,30.05,29.76,20,13,10,8,2,,0.00,0,,215
2012-10-7,80,70,59,57,54,48,82,52,32,30.14,30.06,29.97,10,10,10,6,1,,0.00,2,,227
2012-10-8,83,72,61,63,58,52,88,59,34,30.19,30.04,29.68,12,8,7,6,1,,0.20,6,Rain,225
2012-10-9,81,68,57,64,60,53,100,70,38,30.21,30.08,29.71,12,7,0,9,2,,0.00,5,Fog,199
2012-10-10,80,71,62,63,60,58,88,62,44,30.22,30.08,29.74,20,10,7,8,2,,0.00,6,,191
2012-10-11,82,70,60,61,57,51,82,57,32,30.23,30.07,29.73,20,10,7,12,3,,0.00,6,,253
2012-10-12,82,70,59,61,57,49,88,62,33,30.23,30.14,29.85,20,13,8,8,3,,0.04,5,,234
2012-10-13,80,69,58,64,58,52,94,62,47,30.26,30.12,29.89,12,10,8,8,3,,0.00,4,,235
2012-10-14,80,70,60,61,58,54,88,58,45,30.19,30.11,30.02,10,10,10,7,2,,0.00,4,,315
2012-10-15,82,71,60,59,52,46,82,49,26,30.19,30.04,29.70,12,9,8,52,4,,0.00,2,,243
2012-10-16,82,68,55,57,52,41,77,54,27,30.14,30.03,29.73,12,9,8,8,4,,0.00,2,,264
2012-10-17,78,68,59,61,58,54,88,67,44,30.15,30.03,29.73,12,7,5,6,3,,0.00,5,,251
2012-10-18,83,70,58,65,59,52,88,61,45,30.12,29.98,29.72,12,6,3,6,3,,0.00,4,,170
2012-10-19,87,76,64,65,56,50,77,49,29,30.09,29.99,29.62,12,7,5,8,3,,0.00,1,,248
2012-10-20,80,69,58,57,55,47,77,52,41,30.12,29.99,29.68,20,10,6,8,2,,0.00,6,,194
2012-10-21,82,72,62,55,52,50,72,45,32,30.11,30.03,29.95,10,10,10,8,2,,0.00,5,,181
2012-10-22,88,74,60,61,53,48,77,46,30,30.12,29.98,29.61,12,10,10,7,1,,0.00,5,,173
2012-10-23,83,72,60,63,54,51,77,50,37,30.08,29.94,29.64,12,10,10,6,2,,0.00,6,,310
2012-10-24,82,71,60,57,51,48,72,43,32,30.11,29.99,29.61,12,10,10,7,4,,0.00,1,,208
2012-10-25,86,72,59,55,50,44,72,45,22,30.10,29.98,29.58,12,10,8,6,3,,0.00,0,,229
2012-10-26,86,72,59,58,48,43,72,39,23,30.10,29.94,29.58,12,10,8,8,4,,0.00,0,,255
2012-10-27,80,68,57,50,46,41,72,41,28,30.15,30.02,29.67,20,11,7,77,6,,0.00,1,,238
2012-10-28,82,70,59,54,51,48,77,46,30,30.19,30.10,30.02,20,12,8,8,4,,0.00,6,,207
2012-10-29,77,67,57,59,55,51,94,56,36,30.25,30.08,29.74,20,11,8,7,3,,0.01,6,Thunderstorm,293
2012-10-30,77,68,58,61,57,52,100,72,37,30.22,30.11,29.81,12,7,0,7,2,,0.00,7,Fog-Rain,275
2012-10-31,77,65,53,55,52,47,94,53,31,30.21,30.06,29.73,12,9,6,8,3,,0.00,4,,242